Morris, MN

3:25 AM CST on February 23, 2018 (GMT -0600)
Morris Municipal

Weather History for KMOX - May, 2013

Change the Weather History Date:

Tuesday, May 21, 2013

  Actual Average Record
Temperature  
Mean Temperature 55 °F -  
Max Temperature 60 °F 65 °F 87 °F (2007)
Min Temperature 50 °F 42 °F 8 °F (2001)
Degree Days  
Heating Degree Days 10    
Growing Degree Days 5 (Base 50)    
Moisture  
Dew Point 52 °F    
Average Humidity 94    
Maximum Humidity 100    
Minimum Humidity 82    
Precipitation  
Precipitation 0.66 in - - ()
Sea Level Pressure  
Sea Level Pressure 29.60 in    
Wind  
Wind Speed 13 mph (ENE)    
Max Wind Speed 20 mph    
Max Gust Speed 25 mph    
Visibility 8 miles    
Events Rain    
Averages and records for this station are not official NWS values.
T = Trace of Precipitation, MM = Missing Value Source: NWS Daily Summary

Daily Weather History Graph

Daily Weather History Graph

Search for Another Location

Airport or City:

Trip Planner

Search our weather history database for the weather conditions in past years. The results will help you decide how hot, cold, wet, or windy it might be!

Date:

Astronomy

May. 21, 2013 Rise Set
Actual Time 5:46 AM CDT 8:55 PM CDT
Civil Twilight 5:10 AM CDT 9:30 PM CDT
Nautical Twilight 4:25 AM CDT 10:17 PM CDT
Astronomical Twilight 3:29 AM CDT 11:13 PM CDT
Moon 5:00 PM CDT (5/21) 3:26 AM CDT (5/21)
Length of Visible Light 16h 19m
Length of Day
15h 08m
Waxing Gibbous, 84% of the Moon is Illuminated
May 21
Waxing Gibbous
May 24
Full
May 31
Last Quarter
Jun 8
New
Jun 16
First Quarter

Hourly Weather History & Observations

Time (CDT) Temp. Dew Point Humidity Pressure Visibility Wind Dir Wind Speed Gust Speed Precip Events Conditions
12:12 AM 60.8 °F 57.2 °F 88% 29.48 in 10.0 mi ESE 8.1 mph - N/A   Overcast
12:32 AM 60.8 °F 57.2 °F 88% 29.48 in 10.0 mi ESE 9.2 mph - N/A   Overcast
12:52 AM 60.8 °F 57.2 °F 88% 29.49 in 10.0 mi ESE 9.2 mph - N/A   Overcast
1:12 AM 60.8 °F 57.2 °F 88% 29.49 in 10.0 mi East 8.1 mph - N/A   Overcast
1:32 AM 60.8 °F 55.4 °F 82% 29.49 in 10.0 mi East 16.1 mph 21.9 mph N/A   Overcast
1:52 AM 59.0 °F 57.2 °F 94% 29.49 in 10.0 mi East 15.0 mph - N/A   Overcast
2:12 AM 59.0 °F 57.2 °F 94% 29.49 in 10.0 mi East 15.0 mph - N/A   Overcast
2:32 AM 59.0 °F 57.2 °F 94% 29.49 in 5.0 mi East 15.0 mph - N/A   Overcast
2:52 AM 57.2 °F 57.2 °F 100% 29.49 in 7.0 mi ENE 11.5 mph - N/A   Overcast
3:12 AM 57.2 °F 55.4 °F 94% 29.49 in 7.0 mi ENE 13.8 mph - N/A   Overcast
3:32 AM 55.4 °F 53.6 °F 94% 29.49 in 4.0 mi ENE 15.0 mph - 0.01 in Rain Rain
3:52 AM 55.4 °F 53.6 °F 94% 29.49 in 7.0 mi East 10.4 mph - 0.05 in Rain Light Rain
4:12 AM 53.6 °F 53.6 °F 100% 29.49 in 4.0 mi ENE 16.1 mph - 0.09 in Rain Heavy Rain
4:32 AM 53.6 °F 53.6 °F 100% 29.50 in 7.0 mi East 13.8 mph - 0.10 in Rain Light Rain
4:52 AM 53.6 °F 51.8 °F 94% 29.51 in 4.0 mi ENE 16.1 mph - 0.12 in Rain Rain
5:12 AM 53.6 °F 51.8 °F 94% 29.51 in 5.0 mi ENE 17.3 mph - N/A Rain Light Rain
5:32 AM 53.6 °F 51.8 °F 94% 29.51 in 5.0 mi ENE 15.0 mph - 0.03 in Rain Light Rain
5:52 AM 51.8 °F 51.8 °F 100% 29.52 in 4.0 mi ENE 16.1 mph 20.7 mph 0.05 in Rain Light Rain
6:12 AM 51.8 °F 51.8 °F 100% 29.52 in 7.0 mi ENE 10.4 mph 13.8 mph 0.01 in Rain Light Rain
6:32 AM 51.8 °F 51.8 °F 100% 29.52 in 7.0 mi ENE 15.0 mph - 0.03 in Rain Light Rain
6:52 AM 51.8 °F 50.0 °F 94% 29.53 in 5.0 mi ENE 16.1 mph - 0.03 in   Light Drizzle
7:12 AM 51.8 °F 50.0 °F 94% 29.53 in 7.0 mi ENE 18.4 mph 21.9 mph N/A   Light Drizzle
7:32 AM 51.8 °F 50.0 °F 94% 29.53 in 5.0 mi ENE 17.3 mph - 0.02 in Rain Light Rain
7:52 AM 51.8 °F 50.0 °F 94% 29.54 in 10.0 mi ENE 16.1 mph 20.7 mph 0.03 in Rain Rain
8:12 AM 51.8 °F 50.0 °F 94% 29.54 in 10.0 mi ENE 19.6 mph - N/A   Overcast
8:32 AM 51.8 °F 50.0 °F 94% 29.54 in 5.0 mi ENE 17.3 mph - N/A   Overcast
8:52 AM 51.8 °F 50.0 °F 94% 29.55 in 10.0 mi ENE 15.0 mph - N/A   Overcast
9:12 AM 51.8 °F 50.0 °F 94% 29.56 in 10.0 mi ENE 16.1 mph 21.9 mph N/A   Overcast
9:32 AM 51.8 °F 50.0 °F 94% 29.56 in 10.0 mi ENE 15.0 mph - N/A   Overcast
9:52 AM 51.8 °F 50.0 °F 94% 29.56 in 10.0 mi ENE 15.0 mph - N/A   Overcast
10:12 AM 53.6 °F 51.8 °F 94% 29.56 in 10.0 mi ENE 15.0 mph - N/A   Overcast
10:32 AM 53.6 °F 51.8 °F 94% 29.57 in 2.0 mi ENE 18.4 mph 23.0 mph N/A Rain Light Rain
10:52 AM 53.6 °F 51.8 °F 94% 29.57 in 7.0 mi ENE 16.1 mph 23.0 mph 0.01 in Rain Light Rain
11:12 AM 53.6 °F 51.8 °F 94% 29.58 in 3.0 mi ENE 17.3 mph - 0.01 in Rain Light Rain
11:32 AM 53.6 °F 51.8 °F 94% 29.58 in 5.0 mi ENE 16.1 mph - 0.02 in Rain Light Rain
11:52 AM 51.8 °F 51.8 °F 100% 29.59 in 10.0 mi ENE 15.0 mph 24.2 mph 0.02 in Rain Light Rain
12:12 PM 53.6 °F 51.8 °F 94% 29.59 in 5.0 mi ENE 17.3 mph 24.2 mph N/A Rain Light Rain
12:32 PM 53.6 °F 51.8 °F 94% 29.60 in 7.0 mi ENE 18.4 mph 23.0 mph N/A   Light Drizzle
12:52 PM 53.6 °F 51.8 °F 94% 29.60 in 10.0 mi ENE 17.3 mph 25.3 mph N/A   Light Drizzle
1:12 PM 53.6 °F 51.8 °F 94% 29.61 in 7.0 mi East 17.3 mph - N/A   Light Drizzle
1:30 PM 53.6 °F 51.8 °F 94% 29.62 in 7.0 mi ENE 15.0 mph - 0.01 in Rain Rain
1:52 PM 53.6 °F 51.8 °F 94% 29.62 in 7.0 mi ENE 15.0 mph - 0.02 in Rain Rain
2:12 PM 53.6 °F 51.8 °F 94% 29.62 in 7.0 mi ENE 17.3 mph - 0.02 in Rain Light Rain
2:32 PM 53.6 °F 51.8 °F 94% 29.63 in 7.0 mi East 13.8 mph 19.6 mph 0.04 in Rain Light Rain
2:52 PM 53.6 °F 51.8 °F 94% 29.64 in 7.0 mi ENE 15.0 mph - 0.05 in Rain Light Rain
3:12 PM 53.6 °F 51.8 °F 94% 29.64 in 7.0 mi ENE 13.8 mph 17.3 mph 0.02 in Rain Light Rain
3:32 PM 53.6 °F 51.8 °F 94% 29.65 in 7.0 mi ENE 12.7 mph - 0.05 in Rain Light Rain
3:52 PM 53.6 °F 51.8 °F 94% 29.65 in 7.0 mi ENE 11.5 mph - 0.07 in Rain Light Rain
4:12 PM 53.6 °F 51.8 °F 94% 29.66 in 10.0 mi ENE 15.0 mph - 0.01 in Rain Light Rain
4:32 PM 53.6 °F 51.8 °F 94% 29.67 in 10.0 mi ENE 10.4 mph - 0.05 in Rain Rain
4:52 PM 53.6 °F 51.8 °F 94% 29.68 in 10.0 mi ENE 10.4 mph - 0.06 in Rain Rain
5:12 PM 53.6 °F 51.8 °F 94% 29.68 in 10.0 mi ENE 9.2 mph - 0.02 in Rain Light Rain
5:32 PM 53.6 °F 51.8 °F 94% 29.68 in 10.0 mi ENE 11.5 mph 17.3 mph 0.04 in Rain Light Rain
5:52 PM 53.6 °F 51.8 °F 94% 29.69 in 10.0 mi NE 10.4 mph - 0.06 in Rain Light Rain
6:12 PM 53.6 °F 51.8 °F 94% 29.69 in 10.0 mi NE 11.5 mph - 0.02 in Rain Rain
6:32 PM 53.6 °F 51.8 °F 94% 29.69 in 10.0 mi NE 11.5 mph - 0.03 in   Drizzle
6:52 PM 53.6 °F 51.8 °F 94% 29.69 in 10.0 mi NE 13.8 mph - 0.05 in Rain Rain
7:12 PM 53.6 °F 50.0 °F 88% 29.70 in 10.0 mi NE 15.0 mph 19.6 mph 0.01 in   Light Drizzle
7:32 PM 53.6 °F 51.8 °F 94% 29.70 in 10.0 mi NE 13.8 mph - 0.01 in   Drizzle
7:52 PM 53.6 °F 51.8 °F 94% 29.70 in 10.0 mi NNE 12.7 mph - 0.01 in Rain Light Rain
8:12 PM 53.6 °F 51.8 °F 94% 29.70 in 10.0 mi NNE 10.4 mph - N/A Rain Light Rain
8:30 PM 53.6 °F 51.8 °F 94% 29.71 in 7.0 mi NNE 15.0 mph - 0.01 in   Drizzle
8:52 PM 51.8 °F 50.0 °F 94% 29.72 in 10.0 mi NNE 18.4 mph - 0.01 in   Light Drizzle
9:12 PM 51.8 °F 48.2 °F 88% 29.73 in 10.0 mi NE 19.6 mph 24.2 mph 0.01 in   Light Drizzle
9:32 PM 51.8 °F 48.2 °F 88% 29.74 in 10.0 mi NNE 18.4 mph - 0.01 in Rain Light Rain
9:52 PM 51.8 °F 48.2 °F 88% 29.74 in 10.0 mi NE 13.8 mph - 0.01 in   Overcast
10:12 PM 50.0 °F 48.2 °F 94% 29.75 in 10.0 mi NE 15.0 mph 18.4 mph N/A   Light Drizzle
10:32 PM 50.0 °F 48.2 °F 94% 29.76 in 10.0 mi NE 10.4 mph - N/A   Light Drizzle
10:52 PM 50.0 °F 48.2 °F 94% 29.77 in 10.0 mi NE 9.2 mph - 0.01 in   Drizzle
11:12 PM 50.0 °F 48.2 °F 94% 29.77 in 10.0 mi NE 10.4 mph - N/A   Light Drizzle
11:32 PM 50.0 °F 48.2 °F 94% 29.77 in 10.0 mi NE 12.7 mph - N/A   Light Drizzle
11:52 PM 50.0 °F 48.2 °F 94% 29.77 in 10.0 mi NE 13.8 mph - N/A   Light Drizzle